This is the latest recevied weather packets stored in our database for station/object JR5YHL-13. If no packets are shown the sender has not sent any weather packets the latest 10 day(s).
| Time | Temp. | Humidity | Pressure | Rain* | Wind** | Luminosity | Snow |
|---|---|---|---|---|---|---|---|
| 1777751832 | 15.56° C | 96% | 1011.8 hPa | 0 mm | - | - | - |
| 1777751234 | 15.56° C | 97% | 1011.8 hPa | 0 mm | - | - | - |
| 1777750637 | 15.56° C | 96% | 1011.8 hPa | 0 mm | - | - | - |
| 1777750039 | 15.56° C | 93% | 1011.9 hPa | 0 mm | - | - | - |
| 1777749441 | 15.56° C | 92% | 1012 hPa | 0 mm | - | - | - |
| 1777748844 | 15.56° C | 89% | 1011.8 hPa | 0 mm | - | - | - |
| 1777748246 | 15.56° C | 88% | 1012.2 hPa | 0 mm | - | - | - |
| 1777747649 | 15.56° C | 88% | 1012.2 hPa | 0 mm | - | - | - |
| 1777747051 | 16.11° C | 89% | 1012.1 hPa | 0 mm | - | - | - |
| 1777746454 | 15.56° C | 89% | 1012 hPa | 0 mm | - | - | - |
| 1777745857 | 15.56° C | 90% | 1012.2 hPa | 0 mm | - | - | - |
| 1777745259 | 16.11° C | 93% | 1012.2 hPa | 0 mm | - | - | - |
| 1777744662 | 15.56° C | 93% | 1012.2 hPa | 0 mm | - | - | - |
| 1777744064 | 15.56° C | 88% | 1012.2 hPa | 0 mm | - | - | - |
| 1777743467 | 16.11° C | 88% | 1012.2 hPa | 0 mm | - | - | - |
| 1777742870 | 15.56° C | 91% | 1012.3 hPa | 0 mm | - | - | - |
| 1777742272 | 15.56° C | 88% | 1012.2 hPa | 0 mm | - | - | - |
| 1777741675 | 15.56° C | 90% | 1012.3 hPa | 0 mm | - | - | - |
| 1777741078 | 15.56° C | 89% | 1012.3 hPa | 0 mm | - | - | - |
| 1777740480 | 16.11° C | 91% | 1012.3 hPa | 0 mm | - | - | - |
| 1777739883 | 16.11° C | 91% | 1012.2 hPa | 0 mm | - | - | - |
| 1777739286 | 16.11° C | 90% | 1012.3 hPa | 0 mm | - | - | - |
| 1777738688 | 16.11° C | 91% | 1012.4 hPa | 0 mm | - | - | - |
| 1777738091 | 16.11° C | 90% | 1012.6 hPa | 0 mm | - | - | - |
| 1777737494 | 16.67° C | 94% | 1012.6 hPa | 0 mm | - | - | - |
* Rain latest hour (hover to see other rain measurements)
** Current wind speed in m/s (hover to see current wind gust speed)